FLASH13 ETNL-ETNL

Flight info

Callsign FLASH13
Flight time N/A
Altitude 35000
Route NL227 ROSOK M726 SALLO REMSA DCT ESS1 STAY01/0040 ESS1 DCT REMSA STAY02/0030 REMSA UNGAV M864 PEROM LAG
Aircraft F22/M-DOV/C

Departure

Time 2026-04-24 20:16
Airport Rostock-Laage Airport (ETNL)

Arrival

Time N/A
Airport Rostock-Laage Airport (ETNL)
Time Latitude Longitude Altitude Speed Heading
2026-04-24 20:02 53.92179 12.26769 140 ft 0 kts 184°
2026-04-24 20:07 53.92157 12.26777 140 ft 8 kts 139°
2026-04-24 20:07 53.92130 12.26978 138 ft 16 kts 100°
2026-04-24 20:07 53.92139 12.27123 137 ft 13 kts 30°
2026-04-24 20:07 53.92173 12.27256 136 ft 16 kts 97°
2026-04-24 20:08 53.92157 12.27470 135 ft 20 kts 97°
2026-04-24 20:08 53.92136 12.27728 133 ft 24 kts 104°
2026-04-24 20:08 53.92111 12.28011 131 ft 23 kts 98°
2026-04-24 20:08 53.92093 12.28233 127 ft 12 kts 98°
2026-04-24 20:09 53.92080 12.28404 128 ft 17 kts 97°
2026-04-24 20:09 53.92062 12.28623 125 ft 21 kts 98°
2026-04-24 20:09 53.92039 12.28874 124 ft 20 kts 99°
2026-04-24 20:09 53.92018 12.29124 121 ft 18 kts 97°
2026-04-24 20:10 53.91975 12.29223 122 ft 11 kts 185°
2026-04-24 20:10 53.91945 12.29327 121 ft 28 kts 97°
2026-04-24 20:10 53.91921 12.29626 117 ft 17 kts 98°
2026-04-24 20:10 53.91913 12.29720 118 ft 0 kts 98°
2026-04-24 20:11 53.91911 12.29747 118 ft 5 kts 98°
2026-04-24 20:11 53.91925 12.29819 116 ft 9 kts 59°
2026-04-24 20:11 53.91923 12.29858 117 ft 0 kts 207°
2026-04-24 20:14 53.91881 12.29792 117 ft 12 kts 178°
2026-04-24 20:14 53.91831 12.29795 117 ft 0 kts 178°
2026-04-24 20:14 53.91792 12.29797 116 ft 11 kts 178°
2026-04-24 20:15 53.91712 12.29802 117 ft 13 kts 178°
2026-04-24 20:15 53.91675 12.29741 119 ft 10 kts 278°
2026-04-24 20:15 53.91679 12.29690 119 ft 38 kts 278°
2026-04-24 20:15 53.91766 12.28577 127 ft 173 kts 277°
2026-04-24 20:16 53.92013 12.25949 845 ft 277 kts 277°
2026-04-24 20:16 53.92251 12.22369 2306 ft 297 kts 270°
2026-04-24 20:16 53.91979 12.18839 4071 ft 322 kts 255°
2026-04-24 20:16 53.91027 12.15184 6205 ft 346 kts 250°
2026-04-24 20:17 53.90020 12.11392 8668 ft 358 kts 250°
2026-04-24 20:17 53.90085 12.04391 13615 ft 271 kts 303°
2026-04-24 20:17 53.91231 12.02049 15854 ft 237 kts 323°
2026-04-24 20:18 53.92184 12.01229 17244 ft 218 kts 348°
2026-04-24 20:18 53.94239 12.01310 19594 ft 235 kts 17°
2026-04-24 20:18 53.95716 12.02362 20610 ft 216 kts 18°
2026-04-24 20:18 53.96994 12.03446 21258 ft 189 kts
2026-04-24 20:19 53.98152 12.04007 21883 ft 160 kts 359°
2026-04-24 20:19 53.99255 12.04234 22296 ft 161 kts 356°
2026-04-24 20:19 54.00455 12.04427 22096 ft 193 kts 357°
2026-04-24 20:19 54.01871 12.04608 21825 ft 222 kts 357°
2026-04-24 20:20 54.03638 12.04764 22104 ft 289 kts 357°
2026-04-24 20:20 54.05861 12.05138 22416 ft 335 kts
2026-04-24 20:20 54.08110 12.05963 22945 ft 329 kts 10°
2026-04-24 20:20 54.10319 12.07057 23580 ft 332 kts 12°
2026-04-24 20:21 54.12531 12.08243 24114 ft 334 kts 13°
2026-04-24 20:21 54.14743 12.09519 24640 ft 336 kts 14°
2026-04-24 20:21 54.16923 12.10852 25148 ft 338 kts 15°
2026-04-24 20:21 54.19127 12.12248 25659 ft 340 kts 18°
2026-04-24 20:22 54.21285 12.14047 26046 ft 349 kts 25°
2026-04-24 20:22 54.23519 12.16289 26385 ft 427 kts 26°
2026-04-24 20:22 54.26511 12.19251 27245 ft 570 kts 27°
2026-04-24 20:22 54.30192 12.22901 28532 ft 629 kts 26°
2026-04-24 20:23 54.34041 12.26648 29949 ft 643 kts 26°
2026-04-24 20:23 54.37944 12.30509 31018 ft 649 kts 28°
2026-04-24 20:23 54.41772 12.34662 31615 ft 655 kts 30°
2026-04-24 20:23 54.45549 12.39133 31800 ft 663 kts 32°
2026-04-24 20:24 54.48093 12.42261 32026 ft 666 kts 33°
2026-04-24 20:24 54.53050 12.48533 32647 ft 669 kts 33°
2026-04-24 20:24 54.56758 12.53346 33340 ft 655 kts 34°
2026-04-24 20:24 54.59591 12.58024 33648 ft 485 kts 54°
2026-04-24 20:25 54.60880 12.63121 33925 ft 445 kts 67°
2026-04-24 20:25 54.61927 12.68164 34607 ft 463 kts 65°
2026-04-24 20:25 54.63082 12.73289 34778 ft 443 kts 64°
2026-04-24 20:25 54.64297 12.77870 35031 ft 364 kts 26°
2026-04-24 20:26 54.66143 12.79148 35668 ft 254 kts 344°
2026-04-24 20:26 54.67625 12.80051 34143 ft 234 kts 33°
2026-04-24 20:26 54.68825 12.81885 33534 ft 241 kts 53°
2026-04-24 20:26 54.69898 12.84690 33021 ft 316 kts 50°
2026-04-24 20:27 54.71233 12.88096 33003 ft 360 kts 49°
2026-04-24 20:27 54.72761 12.91742 33136 ft 387 kts 47°
2026-04-24 20:27 54.74589 12.95345 33693 ft 422 kts 33°
2026-04-24 20:27 54.76895 12.98662 34483 ft 408 kts 38°
2026-04-24 20:28 54.78524 13.02191 35332 ft 366 kts 49°
2026-04-24 20:28 54.79969 13.05778 35712 ft 362 kts 49°
2026-04-24 20:28 54.81497 13.09367 35493 ft 375 kts 45°
2026-04-24 20:28 54.83153 13.12830 35450 ft 385 kts 44°
2026-04-24 20:29 54.84334 13.15276 35232 ft 392 kts 42°
2026-04-24 20:29 54.86763 13.19799 35048 ft 382 kts 38°
2026-04-24 20:29 54.88673 13.22977 34919 ft 369 kts 37°
2026-04-24 20:29 54.90445 13.25958 35009 ft 349 kts 37°
2026-04-24 20:30 54.92242 13.28821 35114 ft 357 kts 29°
2026-04-24 20:30 54.94544 13.31222 35225 ft 425 kts 21°
2026-04-24 20:30 54.97496 13.33751 35326 ft 526 kts 20°
2026-04-24 20:30 55.01103 13.36721 35373 ft 593 kts 22°
2026-04-24 20:31 55.04798 13.39983 35285 ft 611 kts 23°
2026-04-24 20:31 55.08663 13.43480 35106 ft 628 kts 23°
2026-04-24 20:31 55.12245 13.46856 35058 ft 554 kts 25°
2026-04-24 20:31 55.15494 13.50432 35028 ft 561 kts 31°
2026-04-24 20:32 55.21563 13.58912 35058 ft 555 kts 34°
2026-04-24 20:32 55.27425 13.67679 35040 ft 553 kts 36°
2026-04-24 20:33 55.32961 13.77107 35029 ft 560 kts 43°
2026-04-24 20:33 55.38024 13.87546 34949 ft 562 kts 45°
2026-04-24 20:34 55.42928 13.98157 35036 ft 563 kts 45°
2026-04-24 20:34 55.47896 14.08813 34991 ft 562 kts 45°
2026-04-24 20:35 55.52805 14.19546 34983 ft 563 kts 46°
2026-04-24 20:35 55.57653 14.30391 34992 ft 562 kts 45°
2026-04-24 20:36 55.62598 14.41068 34964 ft 561 kts 45°
2026-04-24 20:36 55.67305 14.52159 35065 ft 565 kts 49°
2026-04-24 20:37 55.71966 14.63361 35198 ft 562 kts 45°
2026-04-24 20:37 55.77150 14.73561 34925 ft 557 kts 42°
2026-04-24 20:38 55.82250 14.83959 34984 ft 556 kts 42°
2026-04-24 20:38 55.87379 14.94264 35093 ft 557 kts 42°
2026-04-24 20:39 55.92448 15.04601 35094 ft 556 kts 42°
2026-04-24 20:39 55.94969 15.09729 35229 ft 557 kts 42°
2026-04-24 20:39 55.97561 15.14886 35315 ft 556 kts 40°
2026-04-24 20:40 56.02864 15.24927 35435 ft 555 kts 38°
2026-04-24 20:40 56.08296 15.34760 35453 ft 556 kts 40°
2026-04-24 20:41 56.13486 15.45086 35407 ft 557 kts 42°
2026-04-24 20:41 56.18616 15.55461 35247 ft 554 kts 41°
2026-04-24 20:42 56.23517 15.66150 34657 ft 530 kts 21°
2026-04-24 20:42 56.26354 15.66474 34750 ft 337 kts 59°
2026-04-24 20:42 56.27883 15.69622 34852 ft 358 kts 39°
2026-04-24 20:43 56.29763 15.73346 34962 ft 447 kts 38°
2026-04-24 20:43 56.32104 15.77926 35245 ft 550 kts 43°
2026-04-24 20:43 56.34798 15.83633 35501 ft 633 kts 44°
2026-04-24 20:43 56.37825 15.89772 35444 ft 672 kts 42°
2026-04-24 20:44 56.41053 15.95939 35314 ft 696 kts 40°
2026-04-24 20:44 56.44507 16.02027 35201 ft 673 kts 39°
2026-04-24 20:44 56.47799 16.07789 35223 ft 629 kts 39°
2026-04-24 20:44 56.50898 16.13271 35083 ft 633 kts 40°
2026-04-24 20:45 56.53750 16.18621 34960 ft 548 kts 40°
2026-04-24 20:45 56.56329 16.23603 34993 ft 544 kts 41°
2026-04-24 20:45 56.58914 16.28668 35173 ft 547 kts 41°
2026-04-24 20:45 56.61512 16.33718 35179 ft 548 kts 41°
2026-04-24 20:46 56.64105 16.38688 34236 ft 538 kts 39°
2026-04-24 20:46 56.66691 16.43536 33423 ft 531 kts 38°
2026-04-24 20:46 56.69314 16.48216 32805 ft 525 kts 35°
2026-04-24 20:46 56.71141 16.51062 32568 ft 517 kts 32°
2026-04-24 20:47 56.73913 16.55160 31913 ft 512 kts 33°
2026-04-24 20:47 56.76544 16.59597 31340 ft 511 kts 36°
2026-04-24 20:47 56.79115 16.63996 30812 ft 505 kts 36°
2026-04-24 20:47 56.82477 16.69797 30086 ft 493 kts 36°
2026-04-24 20:48 56.86541 16.77051 29923 ft 494 kts 40°
2026-04-24 20:48 56.88218 16.82524 29558 ft 531 kts 74°
2026-04-24 20:48 56.88947 16.89019 28866 ft 516 kts 69°
2026-04-24 20:49 56.89689 16.95455 29119 ft 519 kts 75°
2026-04-24 20:49 56.90040 17.02096 29372 ft 527 kts 80°
2026-04-24 20:49 56.90308 17.08824 29964 ft 531 kts 77°
2026-04-24 20:49 56.90753 17.15533 30346 ft 533 kts 75°
2026-04-24 20:50 56.91756 17.21872 29312 ft 508 kts 59°
2026-04-24 20:50 56.92971 17.27892 27868 ft 502 kts 67°
2026-04-24 20:50 56.93682 17.34112 27004 ft 498 kts 73°
2026-04-24 20:50 56.94246 17.40355 26404 ft 494 kts 75°
2026-04-24 20:51 56.94405 17.46553 25641 ft 499 kts 93°
2026-04-24 20:51 56.93423 17.52662 24877 ft 503 kts 112°
2026-04-24 20:51 56.91470 17.57971 24805 ft 508 kts 132°
2026-04-24 20:51 56.88638 17.61790 24593 ft 505 kts 156°
2026-04-24 20:52 56.85328 17.63511 23714 ft 486 kts 175°
2026-04-24 20:52 56.82001 17.63395 23655 ft 479 kts 189°
2026-04-24 20:52 56.78844 17.61761 23056 ft 465 kts 212°
2026-04-24 20:52 56.76159 17.58690 22529 ft 464 kts 189°
2026-04-24 20:53 56.72874 17.58654 23184 ft 475 kts 195°
2026-04-24 20:53 56.69684 17.57229 22903 ft 471 kts 201°
2026-04-24 20:53 56.66746 17.54772 23283 ft 465 kts 214°
2026-04-24 20:53 56.64030 17.51578 23587 ft 464 kts 223°
2026-04-24 20:54 56.61537 17.47906 23329 ft 459 kts 225°
2026-04-24 20:54 56.59063 17.44117 23288 ft 473 kts 226°
2026-04-24 20:54 56.56412 17.40024 23473 ft 547 kts 226°
2026-04-24 20:54 56.53490 17.35398 23666 ft 560 kts 226°
2026-04-24 20:55 56.50548 17.30743 23766 ft 572 kts 226°
2026-04-24 20:55 56.47464 17.25967 23841 ft 586 kts 225°
2026-04-24 20:55 56.44342 17.21205 23992 ft 588 kts 225°
2026-04-24 20:55 56.41215 17.16411 24119 ft 590 kts 226°
2026-04-24 20:56 56.38146 17.11503 24233 ft 588 kts 229°
2026-04-24 20:56 56.35292 17.06368 24264 ft 585 kts 232°
2026-04-24 20:56 56.32517 17.01031 23981 ft 582 kts 233°
2026-04-24 20:56 56.29782 16.95683 23677 ft 580 kts 233°
2026-04-24 20:57 56.27070 16.90345 23364 ft 577 kts 233°
2026-04-24 20:57 56.24373 16.85009 23017 ft 574 kts 234°
2026-04-24 20:57 56.21797 16.79561 22817 ft 570 kts 237°
2026-04-24 20:57 56.19345 16.74001 22605 ft 566 kts 238°
2026-04-24 20:58 56.16975 16.68373 22382 ft 563 kts 239°
2026-04-24 20:58 56.14661 16.62713 22158 ft 561 kts 240°
2026-04-24 20:58 56.12287 16.57170 22656 ft 564 kts 236°
2026-04-24 20:58 56.09760 16.52182 23657 ft 529 kts 232°
2026-04-24 20:59 56.07748 16.47502 23829 ft 426 kts 243°
2026-04-24 20:59 56.05141 16.44755 23470 ft 432 kts 226°
2026-04-24 20:59 56.03654 16.40573 23631 ft 405 kts 251°
2026-04-24 20:59 56.01843 16.36625 24165 ft 413 kts 223°
2026-04-24 21:00 55.99856 16.33189 24535 ft 393 kts 242°
2026-04-24 21:00 55.98243 16.29265 24306 ft 393 kts 240°
2026-04-24 21:00 55.96442 16.25560 24122 ft 400 kts 232°
2026-04-24 21:00 55.94226 16.22422 23968 ft 408 kts 225°
2026-04-24 21:01 55.92045 16.19255 23939 ft 399 kts 234°
2026-04-24 21:01 55.90174 16.15652 23983 ft 395 kts 237°
2026-04-24 21:01 55.88357 16.11970 23973 ft 398 kts 235°
2026-04-24 21:01 55.86475 16.08365 24013 ft 397 kts 236°
2026-04-24 21:02 55.84634 16.04726 24008 ft 395 kts 237°
2026-04-24 21:02 55.82813 16.01065 23999 ft 395 kts 237°
2026-04-24 21:02 55.80996 15.97397 23987 ft 395 kts 237°
2026-04-24 21:02 55.79118 15.93822 23961 ft 397 kts 234°
2026-04-24 21:03 55.77188 15.90385 23934 ft 398 kts 233°
2026-04-24 21:03 55.75192 15.86966 23985 ft 398 kts 232°
2026-04-24 21:03 55.73245 15.83493 24051 ft 395 kts 236°
2026-04-24 21:03 55.71474 15.79802 24050 ft 390 kts 241°
2026-04-24 21:04 55.69893 15.75931 23980 ft 383 kts 248°
2026-04-24 21:04 55.69053 15.71637 23882 ft 362 kts 268°
2026-04-24 21:04 55.68949 15.67307 23837 ft 345 kts 284°
2026-04-24 21:04 55.69696 15.63382 23756 ft 335 kts 302°
2026-04-24 21:05 55.71106 15.60212 23799 ft 326 kts 318°
2026-04-24 21:05 55.73039 15.58152 23912 ft 331 kts 339°
2026-04-24 21:05 55.75346 15.57685 23898 ft 342 kts 359°
2026-04-24 21:05 55.77708 15.58498 23818 ft 352 kts 11°
2026-04-24 21:06 55.79916 15.60524 23678 ft 367 kts 30°
2026-04-24 21:06 55.81766 15.63775 23703 ft 382 kts 44°
2026-04-24 21:06 55.83202 15.67822 23832 ft 394 kts 56°
2026-04-24 21:06 55.84318 15.72376 24014 ft 407 kts 59°
2026-04-24 21:07 55.85405 15.77088 24012 ft 409 kts 56°
2026-04-24 21:07 55.86715 15.81551 24066 ft 407 kts 53°
2026-04-24 21:07 55.88023 15.86031 24047 ft 408 kts 55°
2026-04-24 21:07 55.89252 15.90597 24021 ft 409 kts 57°
2026-04-24 21:08 55.90413 15.95232 23990 ft 410 kts 58°
2026-04-24 21:08 55.91516 15.99943 23970 ft 411 kts 60°
2026-04-24 21:08 55.92555 16.04705 24078 ft 413 kts 61°
2026-04-24 21:08 55.93529 16.09476 24183 ft 415 kts 62°
2026-04-24 21:09 55.94468 16.14362 24276 ft 416 kts 63°
2026-04-24 21:09 55.95363 16.19300 24369 ft 418 kts 64°
2026-04-24 21:09 55.96489 16.23940 24470 ft 394 kts 38°
2026-04-24 21:09 55.98479 16.27174 24647 ft 384 kts 29°
2026-04-24 21:10 56.00616 16.29992 24741 ft 381 kts 27°
2026-04-24 21:10 56.02726 16.32909 24637 ft 384 kts 31°
2026-04-24 21:10 56.04747 16.36045 24241 ft 394 kts 36°
2026-04-24 21:10 56.06719 16.39975 23974 ft 431 kts 43°
2026-04-24 21:11 56.08548 16.44240 23909 ft 433 kts 46°
2026-04-24 21:11 56.10206 16.48517 23953 ft 402 kts 46°
2026-04-24 21:11 56.11724 16.52628 23946 ft 394 kts 48°
2026-04-24 21:11 56.13213 16.56769 23941 ft 395 kts 49°
2026-04-24 21:12 56.14670 16.60954 23932 ft 396 kts 50°
2026-04-24 21:12 56.15616 16.63749 23928 ft 397 kts 50°
2026-04-24 21:12 56.17636 16.69246 23951 ft 389 kts 43°
2026-04-24 21:12 56.19382 16.72914 23886 ft 386 kts 41°
2026-04-24 21:13 56.21059 16.76630 23930 ft 389 kts 44°
2026-04-24 21:13 56.22657 16.80586 23943 ft 393 kts 47°
2026-04-24 21:13 56.24174 16.84675 23987 ft 394 kts 49°
2026-04-24 21:13 56.25664 16.88825 23997 ft 394 kts 47°
2026-04-24 21:14 56.27196 16.92899 23957 ft 393 kts 47°
2026-04-24 21:14 56.28752 16.96931 23914 ft 392 kts 46°
2026-04-24 21:14 56.30317 17.00939 23933 ft 391 kts 46°
2026-04-24 21:14 56.31883 17.04952 24122 ft 393 kts 46°
2026-04-24 21:15 56.33449 17.09001 24313 ft 394 kts 47°
2026-04-24 21:15 56.35008 17.13094 24197 ft 396 kts 47°
2026-04-24 21:15 56.36524 17.17177 23815 ft 391 kts 48°
2026-04-24 21:15 56.37988 17.21334 23804 ft 394 kts 50°
2026-04-24 21:16 56.39372 17.25616 23833 ft 396 kts 53°
2026-04-24 21:16 56.40680 17.30013 23851 ft 398 kts 54°
2026-04-24 21:16 56.41910 17.34493 23861 ft 400 kts 57°
2026-04-24 21:16 56.43124 17.39007 23866 ft 395 kts 51°
2026-04-24 21:17 56.44889 17.42544 23936 ft 369 kts 21°
2026-04-24 21:17 56.47169 17.44604 24305 ft 367 kts 18°
2026-04-24 21:17 56.49470 17.46647 24412 ft 372 kts 24°
2026-04-24 21:17 56.50901 17.48406 24317 ft 378 kts 31°
2026-04-24 21:18 56.53607 17.52355 24627 ft 364 kts 20°
2026-04-24 21:18 56.55902 17.54447 25469 ft 372 kts 20°
2026-04-24 21:18 56.58216 17.56656 25542 ft 379 kts 23°
2026-04-24 21:18 56.60448 17.59220 25178 ft 379 kts 26°
2026-04-24 21:19 56.62613 17.61954 24857 ft 380 kts 29°
2026-04-24 21:19 56.64707 17.64923 24580 ft 392 kts 33°
2026-04-24 21:19 56.66909 17.68686 24485 ft 490 kts 61°
2026-04-24 21:19 56.67255 17.74826 24455 ft 529 kts 108°
2026-04-24 21:20 56.61534 17.83062 24420 ft 541 kts 153°
2026-04-24 21:20 56.58167 17.86119 24393 ft 541 kts 154°
2026-04-24 21:20 56.54667 17.88015 24138 ft 521 kts 206°
2026-04-24 21:21 56.51969 17.84120 23962 ft 488 kts 242°
2026-04-24 21:21 56.50909 17.78586 24453 ft 453 kts 279°
2026-04-24 21:21 56.51566 17.73016 25381 ft 455 kts 288°
2026-04-24 21:21 56.52329 17.67427 26090 ft 459 kts 288°
2026-04-24 21:22 56.53088 17.61803 26822 ft 462 kts 288°
2026-04-24 21:22 56.53841 17.56133 27580 ft 465 kts 287°
2026-04-24 21:22 56.53937 17.50270 28508 ft 464 kts 261°
2026-04-24 21:22 56.52763 17.46937 30044 ft 497 kts 227°
2026-04-24 21:23 56.50579 17.44287 25190 ft 223 kts 326°
2026-04-24 21:23 56.52173 17.41541 23751 ft 373 kts 298°
2026-04-24 21:23 56.52575 17.36902 24144 ft 411 kts 275°
2026-04-24 21:23 56.52680 17.31275 24338 ft 459 kts 278°
2026-04-24 21:24 56.52814 17.25779 24242 ft 398 kts 277°
2026-04-24 21:24 56.52913 17.21360 24220 ft 329 kts 280°
2026-04-24 21:24 56.52984 17.17291 24159 ft 321 kts 277°
2026-04-24 21:24 56.52966 17.12883 24246 ft 364 kts 275°
2026-04-24 21:25 56.52871 17.08393 24167 ft 354 kts 275°
2026-04-24 21:25 56.52847 17.04008 24320 ft 352 kts 278°
2026-04-24 21:25 56.52953 16.99576 24273 ft 352 kts 280°
2026-04-24 21:25 56.53120 16.95155 23105 ft 354 kts 281°
2026-04-24 21:26 56.53407 16.91069 22511 ft 320 kts 317°
2026-04-24 21:26 56.55422 16.89021 20070 ft 356 kts 356°
2026-04-24 21:26 56.57801 16.90149 19117 ft 363 kts 38°
2026-04-24 21:26 56.59343 16.93618 18915 ft 346 kts 45°
2026-04-24 21:27 56.60411 16.97577 18757 ft 364 kts 79°
2026-04-24 21:27 56.60332 17.02263 18883 ft 374 kts 89°
2026-04-24 21:27 56.59877 17.05464 18924 ft 445 kts 122°
2026-04-24 21:27 56.57562 17.11148 19351 ft 673 kts 126°
2026-04-24 21:28 56.54202 17.22195 21559 ft 766 kts 78°
2026-04-24 21:28 56.57302 17.27006 23907 ft 588 kts 334°
2026-04-24 21:28 56.56924 17.22192 23640 ft 603 kts 171°
2026-04-24 21:28 56.57425 17.24949 19640 ft 449 kts 292°
2026-04-24 21:29 56.56490 17.23227 18053 ft 88 kts 335°
2026-04-24 21:29 56.56787 17.24035 14323 ft 140 kts 64°
2026-04-24 21:29 56.56889 17.26602 14154 ft 233 kts 53°
2026-04-24 21:29 56.57555 17.26484 12902 ft 242 kts 247°
2026-04-24 21:30 56.57446 17.25032 9943 ft 128 kts 92°
2026-04-24 21:30 56.57491 17.28579 5179 ft 545 kts 62°
2026-04-24 21:30 56.60577 17.28726 10756 ft 632 kts 286°
2026-04-24 21:30 56.57308 17.27097 11885 ft 772 kts 115°
2026-04-24 21:31 56.55414 17.32227 18361 ft 462 kts 144°
2026-04-24 21:31 56.58168 17.31618 10998 ft 738 kts 292°
2026-04-24 21:31 56.55371 17.29435 9034 ft 562 kts 94°
2026-04-24 21:31 56.59360 17.31916 4307 ft 796 kts 300°
2026-04-24 21:32 56.57104 17.29207 12630 ft 729 kts 101°
2026-04-24 21:32 56.60323 17.30336 13983 ft 691 kts 307°
2026-04-24 21:32 56.62318 17.33199 20663 ft 707 kts 131°
2026-04-24 21:32 56.60797 17.32029 25391 ft 216 kts 29°
2026-04-24 21:33 56.61141 17.33167 22101 ft 160 kts 179°
2026-04-24 21:33 56.60678 17.33536 19118 ft 44 kts 70°
2026-04-24 21:33 56.59967 17.33452 14997 ft 176 kts 289°
2026-04-24 21:33 56.60302 17.31860 13249 ft 201 kts 311°
2026-04-24 21:34 56.61602 17.31067 13972 ft 270 kts 55°
2026-04-24 21:34 56.61738 17.35015 15961 ft 291 kts 86°
2026-04-24 21:34 56.60032 17.38138 18104 ft 454 kts 186°
2026-04-24 21:34 56.56836 17.35437 18209 ft 550 kts 284°
2026-04-24 21:35 56.60234 17.36261 13948 ft 750 kts 34°
2026-04-24 21:35 56.61952 17.31595 11069 ft 787 kts 205°
2026-04-24 21:35 56.59428 17.37293 12899 ft 502 kts 50°
2026-04-24 21:35 56.60276 17.33454 14122 ft 673 kts 192°
2026-04-24 21:36 56.59547 17.39683 7091 ft 814 kts 10°
2026-04-24 21:36 56.61270 17.33489 9342 ft 795 kts 206°
2026-04-24 21:36 56.59629 17.38582 10267 ft 738 kts 16°
2026-04-24 21:36 56.61404 17.33216 12696 ft 615 kts 197°
2026-04-24 21:37 56.57563 17.38602 16681 ft 816 kts 161°
2026-04-24 21:37 56.56346 17.33149 12828 ft 776 kts 345°
2026-04-24 21:37 56.59407 17.39765 13789 ft 755 kts 95°
2026-04-24 21:37 56.56551 17.38959 11161 ft 713 kts 294°
2026-04-24 21:38 56.59264 17.41638 7867 ft 827 kts 118°
2026-04-24 21:38 56.57640 17.42194 18636 ft 623 kts 313°
2026-04-24 21:38 56.59213 17.38165 10824 ft 543 kts 175°
2026-04-24 21:38 56.58487 17.45851 4423 ft 872 kts 26°
2026-04-24 21:39 56.61145 17.40299 5055 ft 835 kts 220°
2026-04-24 21:39 56.58488 17.44969 6952 ft 810 kts 39°
2026-04-24 21:39 56.63794 17.48259 8656 ft 831 kts 57°
2026-04-24 21:39 56.62179 17.52442 13441 ft 567 kts 243°
2026-04-24 21:40 56.62857 17.51700 10633 ft 263 kts 130°
2026-04-24 21:40 56.62410 17.52087 7466 ft 114 kts 329°
2026-04-24 21:40 56.63373 17.51368 7767 ft 133 kts 108°
2026-04-24 21:40 56.62629 17.51606 5653 ft 290 kts 214°
2026-04-24 21:41 56.61631 17.50634 10618 ft 220 kts 116°
2026-04-24 21:41 56.60911 17.51222 9175 ft 133 kts 273°
2026-04-24 21:41 56.59972 17.50522 7496 ft 211 kts 161°
2026-04-24 21:41 56.58429 17.51504 10996 ft 263 kts 166°
2026-04-24 21:42 56.56581 17.51516 16427 ft 306 kts 252°
2026-04-24 21:42 56.56587 17.49258 14998 ft 69 kts 66°
2026-04-24 21:42 56.56845 17.51305 13130 ft 244 kts 72°
2026-04-24 21:42 56.56527 17.53242 12237 ft 54 kts 12°
2026-04-24 21:43 56.57582 17.53754 10064 ft 295 kts
2026-04-24 21:43 56.60585 17.54654 10425 ft 599 kts
2026-04-24 21:43 56.65108 17.57979 10547 ft 799 kts 64°
2026-04-24 21:43 56.61840 17.61354 6651 ft 836 kts 239°
2026-04-24 21:44 56.62651 17.56735 18558 ft 358 kts 106°
2026-04-24 21:44 56.59667 17.57061 17987 ft 311 kts 293°
2026-04-24 21:44 56.62778 17.61110 11694 ft 760 kts 90°
2026-04-24 21:44 56.58870 17.62501 15968 ft 750 kts 248°
2026-04-24 21:45 56.61169 17.57290 23621 ft 712 kts
2026-04-24 21:45 56.61896 17.62318 14569 ft 762 kts 181°
2026-04-24 21:45 56.57897 17.54832 12280 ft 924 kts 266°
2026-04-24 21:45 56.61493 17.47369 16255 ft 896 kts
2026-04-24 21:46 56.65320 17.55126 20395 ft 950 kts 97°
2026-04-24 21:46 56.60376 17.61107 19075 ft 994 kts 205°
2026-04-24 21:46 56.58710 17.50930 14671 ft 996 kts 295°
2026-04-24 21:46 56.64393 17.45487 11770 ft 1000 kts 349°
2026-04-24 21:47 56.66412 17.37122 14803 ft 913 kts 225°
2026-04-24 21:47 56.61184 17.39090 14630 ft 937 kts 102°
2026-04-24 21:47 56.59240 17.49888 11907 ft 968 kts 162°
2026-04-24 21:47 56.54291 17.44245 13744 ft 911 kts 265°
2026-04-24 21:48 56.58222 17.38108 14753 ft 907 kts 15°
2026-04-24 21:48 56.58581 17.46554 16688 ft 889 kts 166°
2026-04-24 21:48 56.55907 17.40196 16252 ft 819 kts 311°
2026-04-24 21:48 56.59107 17.42447 24335 ft 732 kts 108°
2026-04-24 21:49 56.55326 17.42766 23676 ft 705 kts 262°
2026-04-24 21:49 56.58075 17.37985 17389 ft 819 kts 36°
2026-04-24 21:49 56.61943 17.40878 20026 ft 556 kts 310°
2026-04-24 21:49 56.63482 17.35130 22355 ft 505 kts 293°
2026-04-24 21:50 56.64496 17.28946 18122 ft 514 kts 284°
2026-04-24 21:50 56.63038 17.22549 14158 ft 612 kts 216°
2026-04-24 21:50 56.59357 17.19217 15365 ft 578 kts 206°
2026-04-24 21:50 56.55748 17.16321 15865 ft 556 kts 207°
2026-04-24 21:51 56.52267 17.13379 16143 ft 546 kts 208°
2026-04-24 21:51 56.48873 17.10366 16368 ft 540 kts 210°
2026-04-24 21:51 56.45692 17.07121 16584 ft 505 kts 221°
2026-04-24 21:51 56.43361 17.02879 16962 ft 471 kts 240°
2026-04-24 21:52 56.41965 16.97509 17093 ft 479 kts 254°
2026-04-24 21:52 56.40854 16.91762 17382 ft 490 kts 255°
2026-04-24 21:52 56.40836 16.86372 17692 ft 425 kts 340°
2026-04-24 21:52 56.42544 16.89359 17592 ft 442 kts 93°
2026-04-24 21:53 56.41914 16.95000 17605 ft 470 kts 98°
2026-04-24 21:53 56.41377 17.00884 17998 ft 472 kts 89°
2026-04-24 21:53 56.41643 17.06584 18518 ft 417 kts 39°
2026-04-24 21:53 56.43660 17.06474 19409 ft 324 kts 284°
2026-04-24 21:54 56.43799 17.02295 20010 ft 366 kts 269°
2026-04-24 21:54 56.43353 16.97126 18612 ft 478 kts 256°
2026-04-24 21:54 56.40462 16.93959 15329 ft 532 kts 218°
2026-04-24 21:54 56.39216 16.89224 16961 ft 408 kts 275°
2026-04-24 21:55 56.38513 16.84655 16801 ft 384 kts 246°
2026-04-24 21:55 56.37790 16.80964 16559 ft 318 kts 249°
2026-04-24 21:55 56.36708 16.77294 16031 ft 365 kts 246°
2026-04-24 21:55 56.35413 16.72877 16104 ft 402 kts 248°
2026-04-24 21:56 56.34170 16.68455 16162 ft 389 kts 248°
2026-04-24 21:56 56.32980 16.64157 16174 ft 377 kts 249°
2026-04-24 21:56 56.31849 16.60112 16121 ft 348 kts 248°
2026-04-24 21:56 56.30733 16.56274 16012 ft 345 kts 246°
2026-04-24 21:57 56.29503 16.52573 15864 ft 346 kts 243°
2026-04-24 21:57 56.28168 16.49033 15692 ft 347 kts 240°
2026-04-24 21:57 56.26467 16.45976 15858 ft 321 kts 246°
2026-04-24 21:57 56.26670 16.42435 14679 ft 330 kts 290°
2026-04-24 21:58 56.27361 16.38151 13664 ft 396 kts 281°
2026-04-24 21:58 56.27320 16.32866 12199 ft 449 kts 268°
2026-04-24 21:58 56.26960 16.27077 10975 ft 446 kts 264°
2026-04-24 21:58 56.26538 16.22486 9995 ft 314 kts 262°
2026-04-24 21:59 56.26428 16.19163 8568 ft 157 kts 274°
2026-04-24 21:59 56.26197 16.15601 7959 ft 338 kts 260°
2026-04-24 21:59 56.25728 16.11625 8335 ft 322 kts 269°
2026-04-24 21:59 56.25589 16.07587 8831 ft 325 kts 269°
2026-04-24 22:00 56.25437 16.03498 9372 ft 328 kts 269°
2026-04-24 22:00 56.25248 15.99385 9654 ft 333 kts 263°
2026-04-24 22:00 56.24543 15.95423 8970 ft 332 kts 252°
2026-04-24 22:00 56.24122 15.91420 8960 ft 326 kts 268°
2026-04-24 22:01 56.23943 15.87345 8951 ft 327 kts 269°
2026-04-24 22:01 56.23800 15.83265 8893 ft 327 kts 269°
2026-04-24 22:01 56.23667 15.79192 8841 ft 326 kts 269°
2026-04-24 22:01 56.23523 15.75118 8785 ft 326 kts 269°
2026-04-24 22:02 56.23364 15.71036 7915 ft 330 kts 268°
2026-04-24 22:02 56.23202 15.66905 6880 ft 332 kts 268°
2026-04-24 22:02 56.23078 15.62832 6128 ft 323 kts 271°
2026-04-24 22:02 56.22337 15.59176 6145 ft 320 kts 236°
2026-04-24 22:03 56.21008 15.55950 5701 ft 320 kts 237°
2026-04-24 22:03 56.19686 15.52726 4964 ft 319 kts 236°
2026-04-24 22:03 56.18372 15.49526 4308 ft 318 kts 236°
2026-04-24 22:03 56.17074 15.46323 3858 ft 315 kts 237°
2026-04-24 22:04 56.15775 15.43154 3425 ft 314 kts 236°
2026-04-24 22:04 56.14474 15.40008 3277 ft 314 kts 237°
2026-04-24 22:04 56.13192 15.36851 2597 ft 310 kts 237°
2026-04-24 22:04 56.11931 15.33720 2297 ft 309 kts 237°
2026-04-24 22:05 56.10688 15.30626 2129 ft 309 kts 237°
2026-04-24 22:05 56.09429 15.27492 2050 ft 311 kts 237°
2026-04-24 22:05 56.08132 15.24350 2016 ft 311 kts 231°
2026-04-24 22:05 56.06344 15.22149 2018 ft 315 kts 210°
2026-04-24 22:06 56.04547 15.20175 2080 ft 297 kts 263°
2026-04-24 22:06 56.05846 15.19914 2095 ft 308 kts 46°
2026-04-24 22:06 56.07317 15.22630 2138 ft 302 kts 25°
2026-04-24 22:06 56.09334 15.22810 2097 ft 295 kts 349°
2026-04-24 22:07 56.11375 15.22380 2074 ft 297 kts
2026-04-24 22:07 56.13423 15.22942 2123 ft 298 kts
2026-04-24 22:07 56.15461 15.23506 2071 ft 290 kts
2026-04-24 22:07 56.17426 15.24035 1743 ft 280 kts
2026-04-24 22:08 56.19289 15.24552 1491 ft 261 kts
2026-04-24 22:08 56.20935 15.24987 1153 ft 205 kts
2026-04-24 22:08 56.22226 15.25323 884 ft 186 kts
2026-04-24 22:08 56.23517 15.25651 620 ft 183 kts
2026-04-24 22:09 56.24771 15.26001 390 ft 180 kts
2026-04-24 22:09 56.25980 15.26338 193 ft 156 kts
2026-04-24 22:09 56.26731 15.26549 191 ft 68 kts
2026-04-24 22:09 56.27121 15.26699 196 ft 46 kts 35°
2026-04-24 22:10 56.27257 15.26889 192 ft 15 kts 40°
2026-04-24 22:10 56.27262 15.26896 192 ft 0 kts 40°
2026-04-24 22:10 56.27273 15.26913 198 ft 14 kts 38°
2026-04-24 22:10 56.27274 15.26979 192 ft 9 kts 190°
2026-04-24 22:11 56.27197 15.26957 197 ft 13 kts 188°
2026-04-24 22:11 56.27094 15.26928 192 ft 17 kts 189°
2026-04-24 22:11 56.26978 15.26936 191 ft 18 kts 177°
2026-04-24 22:11 56.26875 15.26941 196 ft 12 kts 179°
2026-04-24 22:12 56.26782 15.26945 191 ft 8 kts 176°
2026-04-24 22:12 56.26763 15.26947 194 ft 4 kts 175°
2026-04-24 22:12 56.26716 15.26953 193 ft 9 kts 174°
2026-04-24 22:12 56.26642 15.26974 201 ft 13 kts 170°
2026-04-24 22:13 56.26552 15.27005 193 ft 8 kts 167°
2026-04-24 22:13 56.26497 15.27027 195 ft 0 kts 169°
2026-04-24 22:13 56.26489 15.27034 191 ft 2 kts 128°
2026-04-24 22:13 56.26497 15.27065 191 ft 5 kts 38°
2026-04-24 22:14 56.26538 15.27096 190 ft 8 kts
2026-04-24 22:14 56.26568 15.27087 193 ft 3 kts 350°
2026-04-24 22:14 56.26575 15.27057 193 ft 0 kts 257°
2026-04-24 22:14 56.26574 15.27044 190 ft 0 kts 258°